Tracking 19562 objects as of 23-Mar-2019
HD Live streaming from Space Station
objects crossing your sky now

STRV 1B

Track STRV 1B now!
10-day predictions
STRV 1B is classified as:


NORAD ID: 23126
Int'l Code: 1994-034C
Perigee: 215.8 km
Apogee: 24,999.1 km
Inclination: 7.2 °
Period: 433.7 minutes
Semi major axis: 18978 km
RCS: 0.317 m2 (medium)
Launch date: June 17, 1994
Source: United Kingdom (UK)
Launch site: FRENCH GUIANA (FRGUI)
aabbcc
Your satellite tracking list
Your tracking list is empty




NASA's NSSDC Master Catalog

Two Line Element Set (TLE):
1 23126U 94034C   19081.60890019  .00014380  00000-0  85551-3 0  9999
2 23126   7.1838  28.0622 6529308 348.2546   1.8130  3.32055821252548
Source of the keplerian elements: AFSPC